[[{"header":{"parameterUnit":"m.s-1","parameterCategory":1,"la1":30.2991,"la2":30.254,"lo1":-89.0895,"lo2":-89.0444,"dy":0.0017,"dx":0.0017,"nx":28,"ny":28,"refTime":"2023-07-17T21:00:00:Z","depth":0,"parameterNumber":2,"parameterNumberName":"U-component_of_WINDS"},"data":[0,0,0,0,0,0,0,0,0,0,0,0,0,0,0,0,0,0,0,0,0,0,0,0,0,0,0,0,0,0,0,0,0,0,0,0,0,0,0,0,0,0,0,0,0,0,0,0,0,0,0,0,0,0,0,0,0,0,1.1685,1.1685,0,1.1682,1.1682,1.1682,1.1704,1.1705,1.1705,1.1706,1.1702,1.1701,1.1701,0,0,0,0,0,0,0,0,0,0,0,0,0,1.1708,1.1707,1.1685,1.1685,1.1685,1.1682,1.1682,1.1682,1.1704,1.1705,1.1706,1.1706,1.1702,1.1701,1.17,0,0,0,0,0,0,0,0,0,0,0,0,0,1.1701,1.1707,1.1685,1.1695,1.1696,1.1682,1.1682,1.1682,1.1704,1.1705,1.1706,1.1707,1.1702,1.1701,1.17,1.1676,0,0,1.1697,1.1697,0,0,0,0,0,0,0,0,1.1701,1.17,1.1694,1.1695,1.1696,1.1695,1.1689,1.168,1.1704,1.1701,1.1706,1.1707,1.1699,1.1698,1.1695,1.1675,1.1675,1.1697,1.1696,1.1696,1.1696,0,0,0,0,0,0,0,1.1702,1.17,1.1684,1.1694,1.1695,1.17,1.17,1.1687,1.1695,1.1701,1.1703,1.1702,1.1699,1.1696,1.1695,1.1675,1.1697,1.1696,1.1696,1.1695,1.1636,1.1635,0,0,0,0,0,0,1.1701,1.17,1.1684,1.1684,1.1701,1.1699,1.1699,1.1694,1.1695,1.1696,1.1702,1.1703,1.1698,1.1697,1.1695,1.1667,1.1696,1.1695,1.1695,1.1637,1.1636,1.1635,0,0,0,0,0,0,1.1701,1.1699,1.1684,1.1693,1.1691,1.1698,1.1692,1.1693,1.1691,1.1695,1.1696,1.1697,1.1698,1.1697,1.1681,1.1667,1.1695,1.1694,1.1638,1.1637,1.1635,1.1609,0,0,0,0,0,0,1.1702,1.1699,1.169,1.1692,1.1691,1.1669,1.1691,1.1693,1.1689,1.1691,1.1691,1.1692,1.1699,1.1682,1.168,1.1666,1.1693,1.1639,1.1637,1.1636,1.1612,1.1607,1.1604,0,0,0,0,0,1.1703,1.1682,1.1689,1.1687,1.1679,1.1669,1.1668,1.1676,1.1688,1.1678,1.1682,1.1692,1.1669,1.168,1.1678,1.1664,1.164,1.1638,1.1636,1.1613,1.1608,1.1604,0,0,0,0,0,0,1.1677,1.1682,1.169,1.167,1.1669,1.1672,1.1661,1.167,1.1665,1.1667,1.1678,1.1678,1.166,1.166,1.1673,1.164,1.1657,1.1654,1.164,1.1636,1.1632,1.1632,1.1692,0,0,0,0,0,1.1669,1.166,1.1666,1.1647,1.1646,1.1654,1.1649,1.1656,1.1655,1.1654,1.1656,1.1654,1.1647,1.1641,1.1635,1.1612,1.1613,1.1602,1.1598,1.1594,1.1591,1.158,1.1575,1.1628,1.1628,1.1628,0,0,1.1652,1.1654,1.1648,1.1642,1.1642,1.1633,1.1653,1.1642,1.1635,1.1652,1.1638,1.1639,1.1638,1.1619,1.161,1.1618,1.1577,1.1592,1.1589,1.1588,1.1578,1.1573,1.1568,1.1626,1.1627,1.1627,0,0,1.1616,1.1617,1.1602,1.1602,1.1602,1.1608,1.1604,1.1606,1.1608,1.1594,1.1607,1.1599,1.1586,1.1585,1.1582,1.1548,1.1558,1.1546,1.1525,1.1514,1.151,1.1506,1.1494,1.149,1.1543,1.1543,1.1543,0,1.1595,1.1582,1.1593,1.1582,1.1579,1.1596,1.1581,1.158,1.1577,1.1575,1.1585,1.1569,1.1569,1.1551,1.1543,1.154,1.1536,1.1545,1.151,1.1506,1.1503,1.1492,1.1487,1.1542,1.1542,1.1542,1.1542,0,1.1556,1.1547,1.1535,1.1533,1.1529,1.1516,1.1525,1.152,1.1528,1.1532,1.1518,1.1519,1.1513,1.1509,1.1516,1.1492,1.1497,1.1508,1.1524,1.1496,1.1486,1.1481,1.154,1.154,1.1541,1.1541,0,0,1.1502,1.1509,1.1504,1.1504,1.1506,1.1499,1.1487,1.1482,1.1477,1.1476,1.1466,1.1455,1.1466,1.1463,1.147,1.1461,1.1434,1.1473,1.1473,1.1466,1.1407,1.1398,1.1393,1.1441,1.1441,1.144,1.1407,0,1.1468,1.1448,1.1458,1.1437,1.1429,1.1446,1.1435,1.1435,1.144,1.1433,1.1438,1.143,1.1445,1.1444,1.1435,1.1439,1.1423,1.1442,1.1432,1.1431,1.1431,1.1387,1.1378,1.1347,1.1403,1.1403,1.1402,0,1.1424,1.1422,1.14,1.1404,1.1401,1.1392,1.1389,1.1383,1.1384,1.1388,1.1386,1.1396,1.1384,1.1402,1.1386,1.1399,1.1396,1.1398,1.1397,1.1395,1.1414,1.1384,1.1337,1.1332,1.1396,1.1396,1.1397,0,1.1387,1.1378,1.1364,1.1363,1.1369,1.1362,1.1363,1.1365,1.1362,1.136,1.1358,1.1354,1.1351,1.1348,1.1357,1.1369,1.134,1.1358,1.1343,1.1343,1.1335,1.1335,1.1286,1.1334,1.1334,1.1335,1.1335,0,1.1346,1.1332,1.1348,1.1339,1.1324,1.1336,1.1321,1.1324,1.1326,1.1318,1.1333,1.1325,1.1338,1.1332,1.1339,1.1325,1.1324,1.1326,1.1328,1.1325,1.1324,1.1322,1.1324,1.1333,1.1334,1.1334,1.1334,0,1.1302,1.1311,1.1297,1.1304,1.1305,1.1294,1.13,1.1292,1.1298,1.1288,1.1286,1.1296,1.1289,1.1298,1.1292,1.1297,1.1278,1.1284,1.1278,1.1279,1.1263,1.1264,1.1209,1.1203,1.1256,1.1256,1.1255,0,1.1275,1.1264,1.1271,1.1267,1.1268,1.1262,1.1259,1.1272,1.1268,1.1269,1.1261,1.1256,1.1253,1.1242,1.1248,1.1243,1.1248,1.123,1.1248,1.1245,1.1248,1.1248,1.1247,1.1226,1.1225,1.1224,1.1224,0,1.1226,1.1232,1.1228,1.1225,1.1222,1.1221,1.122,1.1217,1.123,1.1225,1.1219,1.1217,1.1212,1.1206,1.1204,1.1206,1.1217,1.1219,1.1215,1.121,1.1207,1.1208,1.1267,1.1219,1.122,1.122,1.122,1.1221,1.1189,1.1181,1.1184,1.118,1.1181,1.1181,1.1174,1.118,1.1175,1.1173,1.1181,1.1173,1.1175,1.1173,1.1174,1.1168,1.1176,1.117,1.1169,1.1167,1.1164,1.1209,1.1168,1.1168,1.1168,1.1168,1.1168,0,1.1141,1.1144,1.114,1.114,1.1136,1.1148,1.1149,1.1145,1.1138,1.114,1.1137,1.113,1.1125,1.1132,1.1128,1.1122,1.1127,1.1121,1.1121,1.1121,1.1157,1.1161,1.1117,1.1117,1.1117,1.1117,1.1117,1.1117,1.1115,1.1102,1.1109,1.1097,1.1101,1.1094,1.1093,1.1093,1.1094,1.1087,1.1083,1.1088,1.1091,1.1089,1.1085,1.1087,1.1085,1.1076,1.108,1.1114,1.1119,1.1123,1.1127,1.1076,1.1076,1.1044,1.1044,1.1044]},{"header":{"parameterUnit":"m.s-1","parameterCategory":1,"la1":30.2991,"la2":30.254,"lo1":-89.0895,"lo2":-89.0444,"dy":0.0017,"dx":0.0017,"nx":28,"ny":28,"refTime":"2023-07-17T21:00:00:Z","depth":0,"parameterNumber":3,"parameterNumberName":"V-component_of_WINDS"},"data":[0,0,0,0,0,0,0,0,0,0,0,0,0,0,0,0,0,0,0,0,0,0,0,0,0,0,0,0,0,0,0,0,0,0,0,0,0,0,0,0,0,0,0,0,0,0,0,0,0,0,0,0,0,0,0,0,0,0,-0.6208,-0.6208,0,-0.6282,-0.6283,-0.6284,-0.6338,-0.6338,-0.6339,-0.6339,-0.6415,-0.6417,-0.6418,0,0,0,0,0,0,0,0,0,0,0,0,0,-0.6113,-0.6115,-0.6208,-0.6208,-0.6209,-0.6282,-0.6283,-0.6284,-0.6338,-0.6338,-0.6339,-0.6339,-0.6415,-0.6417,-0.6419,0,0,0,0,0,0,0,0,0,0,0,0,0,-0.6168,-0.6115,-0.6207,-0.6245,-0.6249,-0.6281,-0.6283,-0.6284,-0.6338,-0.6338,-0.6339,-0.634,-0.6414,-0.6416,-0.6419,-0.642,0,0,-0.6426,-0.6427,0,0,0,0,0,0,0,0,-0.6164,-0.6171,-0.6239,-0.6243,-0.6247,-0.6301,-0.6278,-0.633,-0.6337,-0.6304,-0.6339,-0.634,-0.6377,-0.6382,-0.6395,-0.6423,-0.6427,-0.6426,-0.6428,-0.6429,-0.643,0,0,0,0,0,0,0,-0.6161,-0.6168,-0.6237,-0.6239,-0.6245,-0.6259,-0.6267,-0.6288,-0.6336,-0.6307,-0.6311,-0.6319,-0.6379,-0.6392,-0.6397,-0.6428,-0.6426,-0.6428,-0.643,-0.6431,-0.6462,-0.6462,0,0,0,0,0,0,-0.6151,-0.6165,-0.6235,-0.6239,-0.6207,-0.626,-0.6269,-0.6283,-0.6336,-0.6344,-0.6318,-0.6321,-0.6388,-0.6394,-0.64,-0.6405,-0.6429,-0.6431,-0.6432,-0.6463,-0.6462,-0.6461,0,0,0,0,0,0,-0.6149,-0.6157,-0.6232,-0.6203,-0.6214,-0.6261,-0.6276,-0.6284,-0.6297,-0.6344,-0.6353,-0.6323,-0.6389,-0.6396,-0.6415,-0.6409,-0.6432,-0.6434,-0.6464,-0.6463,-0.6462,-0.6416,0,0,0,0,0,0,-0.6146,-0.6156,-0.6156,-0.6203,-0.6215,-0.6245,-0.6276,-0.6285,-0.6301,-0.6306,-0.6351,-0.6359,-0.639,-0.6411,-0.6417,-0.6413,-0.6436,-0.6464,-0.6463,-0.6462,-0.6418,-0.6413,-0.641,0,0,0,0,0,-0.6142,-0.614,-0.6156,-0.6164,-0.6217,-0.6244,-0.6252,-0.6287,-0.6301,-0.6302,-0.6332,-0.6357,-0.6408,-0.6412,-0.642,-0.6416,-0.6465,-0.6463,-0.6462,-0.642,-0.6414,-0.641,0,0,0,0,0,0,-0.6092,-0.6147,-0.6165,-0.6178,-0.6206,-0.6254,-0.6256,-0.628,-0.6305,-0.6308,-0.6351,-0.6361,-0.6375,-0.6397,-0.6401,-0.642,-0.644,-0.644,-0.6405,-0.64,-0.6396,-0.6391,-0.6438,0,0,0,0,0,-0.6082,-0.6099,-0.6147,-0.6154,-0.6167,-0.6209,-0.6222,-0.6247,-0.6278,-0.6291,-0.6322,-0.6351,-0.6374,-0.6388,-0.6412,-0.6421,-0.6432,-0.6422,-0.6418,-0.6414,-0.6414,-0.6422,-0.6418,-0.6457,-0.6457,-0.6457,0,0,-0.6062,-0.6094,-0.6103,-0.6144,-0.6169,-0.6187,-0.6219,-0.6236,-0.625,-0.6293,-0.6313,-0.6337,-0.6373,-0.6387,-0.6395,-0.6406,-0.6406,-0.6413,-0.6409,-0.6411,-0.642,-0.6417,-0.6413,-0.6456,-0.6456,-0.6456,0,0,-0.6035,-0.6061,-0.607,-0.6094,-0.6132,-0.616,-0.6162,-0.6206,-0.6224,-0.6244,-0.6277,-0.6294,-0.6332,-0.6357,-0.6374,-0.6357,-0.6381,-0.6363,-0.6341,-0.6348,-0.6345,-0.6343,-0.6338,-0.6335,-0.6363,-0.6363,-0.6363,0,-0.6006,-0.6034,-0.6072,-0.6087,-0.6105,-0.6145,-0.6155,-0.6177,-0.622,-0.6231,-0.6243,-0.6292,-0.6319,-0.634,-0.6336,-0.6348,-0.6352,-0.6359,-0.6343,-0.634,-0.6339,-0.6334,-0.6332,-0.636,-0.636,-0.6361,-0.6361,0,-0.5997,-0.6016,-0.6019,-0.6059,-0.6077,-0.609,-0.613,-0.6143,-0.6167,-0.6193,-0.6214,-0.6247,-0.6279,-0.6286,-0.6308,-0.631,-0.6316,-0.6334,-0.6355,-0.6332,-0.6329,-0.6327,-0.6357,-0.6358,-0.6358,-0.6359,0,0,-0.5941,-0.6002,-0.6003,-0.6022,-0.6066,-0.6082,-0.6096,-0.6127,-0.6139,-0.6167,-0.6181,-0.6212,-0.623,-0.6249,-0.6275,-0.6281,-0.6267,-0.63,-0.6301,-0.6293,-0.6272,-0.6259,-0.6256,-0.6283,-0.6283,-0.6283,-0.627,0,-0.5922,-0.595,-0.5985,-0.6002,-0.602,-0.6059,-0.6072,-0.61,-0.6126,-0.6145,-0.6174,-0.6196,-0.6217,-0.6229,-0.6237,-0.6267,-0.6264,-0.6268,-0.6297,-0.6298,-0.6288,-0.6254,-0.624,-0.6226,-0.6268,-0.6268,-0.6268,0,-0.5903,-0.593,-0.5949,-0.5992,-0.6001,-0.6012,-0.6044,-0.6062,-0.6095,-0.6113,-0.6135,-0.6163,-0.6181,-0.6199,-0.6225,-0.6227,-0.6241,-0.6258,-0.6258,-0.6263,-0.6282,-0.6259,-0.6222,-0.622,-0.6266,-0.6266,-0.6267,0,-0.5862,-0.5902,-0.5919,-0.5934,-0.5985,-0.5992,-0.6013,-0.6048,-0.6064,-0.6092,-0.6103,-0.6132,-0.6148,-0.617,-0.6205,-0.6215,-0.6228,-0.6248,-0.6244,-0.6243,-0.6246,-0.6245,-0.6211,-0.6253,-0.6253,-0.6253,-0.6253,0,-0.5838,-0.5848,-0.5901,-0.5912,-0.5924,-0.5964,-0.5976,-0.6001,-0.6031,-0.6047,-0.6082,-0.6096,-0.6142,-0.6162,-0.6189,-0.6207,-0.6214,-0.623,-0.6237,-0.6227,-0.6225,-0.6237,-0.624,-0.6252,-0.6252,-0.6252,-0.6252,0,-0.5794,-0.583,-0.5851,-0.5897,-0.5909,-0.5917,-0.5957,-0.5968,-0.5996,-0.6016,-0.6023,-0.6066,-0.6092,-0.6129,-0.6166,-0.6184,-0.6198,-0.6209,-0.6187,-0.6191,-0.6186,-0.6186,-0.6159,-0.6158,-0.6199,-0.6198,-0.6198,0,-0.5777,-0.5786,-0.5833,-0.5846,-0.5867,-0.5888,-0.5905,-0.5944,-0.5961,-0.6,-0.6007,-0.6035,-0.606,-0.6099,-0.6134,-0.6162,-0.6175,-0.6164,-0.618,-0.617,-0.6176,-0.6176,-0.6177,-0.616,-0.6159,-0.6159,-0.6158,0,-0.5743,-0.576,-0.5784,-0.5813,-0.5833,-0.5858,-0.5885,-0.5894,-0.5939,-0.5956,-0.5983,-0.6002,-0.6039,-0.6067,-0.61,-0.6123,-0.6148,-0.6153,-0.6154,-0.6144,-0.6131,-0.6139,-0.6178,-0.6154,-0.6154,-0.6155,-0.6155,-0.6155,-0.5713,-0.5723,-0.5758,-0.5783,-0.5807,-0.5832,-0.5845,-0.5875,-0.5897,-0.5931,-0.5953,-0.5978,-0.6012,-0.606,-0.6081,-0.6102,-0.6112,-0.6113,-0.6114,-0.6113,-0.611,-0.6127,-0.6108,-0.6108,-0.6108,-0.6108,-0.6109,0,-0.5682,-0.5706,-0.5729,-0.5765,-0.5785,-0.5807,-0.5838,-0.5853,-0.5875,-0.5905,-0.5929,-0.5959,-0.5987,-0.6024,-0.6054,-0.6063,-0.6076,-0.607,-0.607,-0.6075,-0.6099,-0.6096,-0.6059,-0.6059,-0.6059,-0.6059,-0.6059,-0.6059,-0.5668,-0.5686,-0.5708,-0.5739,-0.5763,-0.5789,-0.5805,-0.5828,-0.5852,-0.5884,-0.5907,-0.5931,-0.5964,-0.5997,-0.6023,-0.6033,-0.6043,-0.6033,-0.6047,-0.6069,-0.6073,-0.6078,-0.6075,-0.6035,-0.6035,-0.6022,-0.6022,-0.6022]}]]